Temp
-9 -9 -9 -10 -10 -9 -9 -9 -8 -8 -9 -8 -8 -8 -8 -8 -8 -8 -8 -8 -8 -8 -8 -8 -8 -8 -8 -8 -9 -9 -9 -9 -9 -9 -9 -9 -9 -8 -8 -8 -8 -8 -9
-9 -9 -9 -10 -10 -10 -9 -9 -9 -8 -9 -9 -9 -8 -8 -8 -8 -8 -8 -8 -8 -8 -8 -8 -9 -9 -9 -9 -9 -9 -9 -9 -9 -9 -9 -9 -9 -9 -8 -8 -9 -9 -10
-9 -9 -9 -9 -10 -10 -10 -9 -9 -9 -9 -9 -9 -9 -9 -8 -8 -8 -8 -8 -8 -8 -8 -8 -9 -9 -9 -9 -9 -9 -9 -9 -9 -9 -9 -9 -9 -9 -9 -9 -9 -10 -10
-10 -9 -9 -9 -9 -10 -10 -10 -10 -10 -9 -9 -9 -9 -9 -9 -8 -8 -8 -9 -9 -9 -9 -9 -9 -9 -9 -9 -9 -9 -9 -9 -9 -9 -9 -9 -9 -9 -9 -9 -9 -10 -10
-10 -9 -9 -9 -9 -9 -10 -10 -11 -10 -10 -9 -9 -9 -9 -9 -9 -8 -9 -9 -9 -9 -9 -9 -9 -9 -9 -9 -9 -10 -9 -10 -9 -10 -10 -9 -10 -10 -10 -10 -9 -10 -10
-10 -10 -9 -10 -9 -9 -10 -10 -11 -11 -11 -10 -9 -9 -9 -9 -9 -9 -9 -9 -9 -9 -9 -9 -9 -9 -10 -9 -10 -10 -10 -10 -10 -10 -10 -10 -10 -10 -10 -10 -10 -10 -10
-10 -10 -10 -10 -9 -9 -10 -10 -10 -11 -11 -11 -10 -10 -10 -9 -9 -9 -9 -9 -9 -9 -9 -9 -9 -9 -10 -10 -10 -10 -10 -10 -10 -10 -10 -10 -10 -10 -10 -10 -10 -10 -10
-10 -10 -10 -10 -10 -10 -9 -10 -10 -11 -11 -11 -11 -10 -10 -10 -9 -9 -9 -9 -9 -9 -9 -10 -9 -10 -10 -10 -10 -11 -11 -11 -11 -11 -10 -10 -10 -10 -11 -11 -11 -11 -11
-10 -10 -10 -10 -10 -10 -11 -9 -10 -10 -11 -11 -11 -10 -10 -10 -10 -9 -9 -9 -9 -9 -10 -10 -10 -10 -10 -10 -10 -11 -11 -11 -11 -11 -11 -11 -11 -11 -11 -11 -11 -11 -11
-11 -10 -10 -10 -10 -10 -10 -10 -10 -10 -11 -11 -11 -11 -10 -10 -10 -10 -9 -10 -10 -10 -10 -10 -10 -10 -10 -11 -11 -11 -11 -11 -11 -11 -11 -11 -11 -11 -11 -11 -11 -11 -11
-11 -11 -11 -10 -9 -9 -10 -10 -11 -10 -11 -11 -11 -11 -11 -11 -10 -10 -10 -10 -10 -10 -10 -11 -11 -11 -10 -11 -11 -12 -12 -12 -11 -11 -11 -11 -11 -11 -11 -12 -12 -12 -12
-11 -11 -11 -11 -10 -10 -9 -10 -11 -11 -10 -11 -11 -11 -11 -11 -12 -11 -10 -10 -10 -10 -11 -11 -11 -11 -11 -12 -12 -12 -12 -12 -12 -12 -12 -12 -12 -12 -12 -12 -12 -12 -12
-11 -11 -11 -11 -11 -11 -11 -10 -10 -10 -9 -10 -11 -11 -11 -11 -12 -12 -11 -11 -11 -11 -11 -12 -12 -12 -12 -12 -12 -13 -12 -12 -12 -12 -12 -12 -12 -12 -12 -12 -12 -12 -12
-12 -12 -12 -12 -11 -11 -11 -10 -10 -10 -11 -11 -10 -11 -10 -11 -11 -12 -12 -12 -13 -12 -11 -12 -12 -12 -13 -13 -13 -13 -13 -13 -13 -13 -13 -12 -12 -12 -12 -13 -13 -13 -13
-12 -12 -12 -12 -12 -13 -11 -10 -10 -10 -10 -10 -11 -11 -11 -11 -11 -11 -11 -13 -13 -12 -12 -13 -12 -13 -13 -13 -12 -13 -13 -13 -13 -13 -13 -13 -13 -13 -13 -13 -13 -14 -13
-12 -13 -12 -12 -12 -12 -12 -11 -10 -11 -10 -10 -11 -12 -12 -12 -11 -11 -12 -13 -12 -12 -13 -14 -14 -14 -13 -13 -12 -13 -14 -14 -14 -14 -13 -13 -13 -13 -14 -13 -14 -14 -14
-12 -12 -12 -12 -12 -12 -12 -11 -11 -11 -10 -11 -11 -12 -12 -13 -11 -11 -11 -11 -12 -12 -14 -14 -14 -14 -14 -14 -13 -13 -14 -14 -14 -14 -14 -14 -13 -14 -14 -14 -14 -14 -14
-12 -12 -12 -12 -12 -11 -11 -12 -11 -10 -11 -11 -11 -12 -12 -12 -12 -12 -12 -12 -12 -13 -13 -14 -14 -14 -13 -13 -13 -14 -14 -15 -14 -14 -14 -13 -13 -14 -14 -15 -14 -15 -15
-11 -11 -11 -11 -12 -11 -12 -12 -11 -11 -11 -11 -11 -11 -11 -11 -11 -11 -12 -13 -13 -13 -14 -14 -14 -13 -13 -14 -14 -14 -15 -14 -15 -15 -13 -14 -14 -14 -14 -15 -15 -15 -15
-12 -12 -11 -12 -12 -12 -12 -11 -11 -12 -12 -12 -12 -12 -12 -12 -13 -13 -14 -13 -13 -13 -14 -14 -13 -14 -14 -14 -14 -14 -14 -14 -15 -14 -14 -14 -15 -14 -14 -14 -14 -15 -15
-12 -12 -12 -12 -12 -11 -11 -12 -12 -12 -12 -11 -12 -12 -12 -13 -13 -13 -14 -13 -13 -14 -14 -14 -14 -14 -14 -14 -14 -14 -14 -14 -14 -15 -14 -14 -14 -15 -14 -14 -14 -15 -15
-12 -12 -11 -12 -12 -12 -12 -11 -12 -11 -12 -12 -12 -13 -13 -13 -13 -13 -13 -14 -14 -14 -14 -14 -14 -14 -14 -14 -14 -14 -14 -14 -14 -14 -14 -15 -14 -15 -15 -15 -15 -16 -16
-13 -12 -12 -12 -12 -12 -12 -12 -12 -12 -12 -12 -12 -13 -13 -13 -13 -13 -14 -14 -14 -14 -14 -14 -14 -14 -14 -14 -14 -14 -15 -15 -14 -14 -15 -14 -14 -14 -15 -15 -16 -16 -16
-13 -12 -13 -13 -13 -13 -13 -12 -13 -13 -13 -13 -13 -14 -14 -14 -14 -14 -14 -14 -14 -14 -15 -15 -14 -14 -14 -14 -14 -15 -15 -15 -15 -15 -15 -14 -15 -15 -15 -16 -16 -16 -16
-15 -15 -14 -14 -15 -15 -14 -14 -14 -14 -14 -14 -14 -14 -14 -14 -14 -14 -14 -14 -14 -15 -15 -14 -14 -14 -14 -14 -15 -15 -15 -15 -15 -16 -15 -15 -16 -16 -16 -16 -16 -17 -17
-14 -14 -14 -14 -14 -14 -14 -15 -15 -15 -15 -15 -15 -15 -15 -15 -15 -15 -15 -15 -15 -15 -15 -14 -14 -14 -15 -14 -15 -15 -15 -16 -16 -17 -17 -17 -18 -17 -17 -17 -18 -18 -19
Height
5855 5858 5860 5864 5868 5871 5873 5875 5877 5879 5881 5882 5884 5885 5886 5886 5885 5885 5885 5885 5885 5884 5883 5882 5880 5878 5876 5873 5870 5868 5864 5862 5861 5859 5856 5853 5850 5846 5842 5838 5833 5830 5825
5850 5851 5853 5856 5861 5864 5867 5869 5871 5873 5875 5877 5879 5881 5881 5882 5882 5882 5882 5881 5881 5880 5880 5878 5876 5874 5872 5870 5867 5865 5862 5860 5858 5857 5855 5850 5848 5844 5840 5836 5832 5828 5823
5844 5845 5847 5849 5853 5856 5860 5863 5864 5866 5868 5871 5873 5876 5876 5876 5877 5878 5878 5878 5877 5877 5875 5873 5872 5870 5869 5866 5864 5863 5859 5857 5855 5854 5852 5848 5845 5842 5838 5835 5831 5827 5821
5837 5840 5841 5843 5844 5849 5852 5856 5858 5860 5862 5863 5866 5869 5871 5871 5872 5872 5873 5873 5872 5872 5871 5869 5868 5866 5864 5862 5861 5859 5855 5853 5851 5850 5848 5845 5843 5839 5836 5833 5829 5824 5819
5829 5832 5835 5836 5838 5842 5846 5849 5852 5853 5855 5857 5859 5861 5865 5866 5866 5866 5867 5867 5867 5867 5866 5865 5863 5862 5860 5858 5857 5855 5853 5850 5847 5846 5844 5841 5839 5836 5833 5831 5827 5822 5818
5821 5824 5827 5829 5832 5835 5838 5842 5844 5846 5848 5850 5853 5855 5857 5860 5860 5861 5861 5861 5861 5861 5860 5860 5858 5857 5854 5854 5852 5850 5849 5846 5844 5843 5840 5836 5835 5833 5831 5828 5825 5820 5817
5811 5814 5819 5821 5823 5827 5830 5832 5834 5837 5840 5842 5845 5848 5849 5851 5852 5853 5854 5854 5855 5854 5854 5854 5853 5851 5850 5848 5847 5845 5844 5842 5840 5838 5836 5833 5831 5829 5828 5825 5822 5818 5815
5799 5804 5809 5812 5815 5817 5821 5824 5827 5829 5832 5836 5838 5838 5841 5844 5845 5845 5846 5847 5847 5848 5848 5847 5846 5845 5844 5842 5841 5840 5839 5836 5834 5832 5831 5829 5826 5825 5823 5821 5819 5816 5812
5787 5794 5799 5803 5807 5809 5812 5817 5819 5821 5823 5826 5830 5831 5833 5836 5835 5836 5837 5838 5839 5839 5840 5840 5840 5839 5837 5836 5835 5833 5831 5830 5828 5827 5825 5823 5822 5821 5820 5817 5814 5811 5807
5774 5781 5787 5790 5794 5799 5801 5806 5811 5813 5814 5818 5820 5825 5826 5827 5827 5828 5829 5829 5829 5831 5832 5832 5832 5831 5830 5829 5828 5826 5824 5823 5820 5819 5818 5817 5817 5816 5813 5812 5809 5806 5803
5758 5767 5773 5778 5785 5789 5793 5798 5801 5805 5807 5809 5813 5815 5818 5818 5818 5820 5819 5820 5820 5823 5824 5824 5824 5823 5822 5821 5820 5818 5815 5814 5812 5811 5810 5810 5809 5807 5806 5805 5803 5801 5798
5742 5750 5758 5765 5773 5780 5784 5789 5792 5795 5799 5799 5803 5804 5805 5807 5810 5811 5811 5811 5812 5814 5813 5814 5814 5814 5814 5813 5812 5809 5806 5804 5803 5802 5803 5802 5801 5800 5798 5797 5796 5794 5791
5727 5735 5745 5751 5762 5769 5775 5778 5782 5786 5788 5791 5792 5793 5792 5794 5797 5798 5800 5802 5804 5803 5803 5804 5805 5805 5805 5804 5803 5800 5798 5796 5794 5793 5794 5792 5792 5791 5790 5789 5788 5785 5783
5711 5720 5729 5740 5747 5757 5763 5769 5774 5778 5780 5780 5783 5783 5784 5784 5785 5789 5789 5790 5794 5792 5793 5794 5794 5794 5794 5795 5794 5791 5789 5787 5784 5784 5783 5782 5781 5782 5781 5780 5779 5777 5776
5696 5707 5717 5727 5739 5745 5754 5761 5767 5769 5771 5771 5771 5773 5774 5774 5775 5775 5777 5779 5780 5781 5782 5782 5781 5783 5783 5782 5781 5780 5779 5776 5775 5775 5774 5773 5771 5771 5770 5769 5768 5767 5766
5681 5696 5709 5720 5729 5736 5744 5751 5757 5760 5760 5761 5760 5761 5763 5764 5763 5763 5764 5766 5766 5768 5769 5768 5768 5769 5769 5769 5768 5767 5767 5766 5764 5764 5763 5763 5761 5761 5760 5759 5758 5757 5756
5667 5681 5695 5705 5717 5726 5734 5740 5744 5747 5749 5750 5748 5750 5753 5753 5753 5751 5751 5752 5753 5754 5755 5756 5756 5756 5756 5757 5757 5756 5756 5755 5753 5752 5751 5751 5750 5750 5748 5748 5747 5747 5746
5654 5670 5681 5693 5705 5716 5723 5729 5732 5735 5738 5737 5737 5739 5741 5741 5740 5740 5740 5741 5741 5742 5741 5744 5746 5746 5747 5745 5744 5746 5743 5742 5741 5740 5741 5742 5740 5739 5737 5737 5736 5735 5734
5645 5660 5673 5686 5698 5706 5713 5718 5721 5724 5724 5724 5724 5725 5729 5727 5727 5727 5728 5729 5730 5731 5733 5734 5734 5735 5734 5733 5733 5733 5731 5729 5727 5727 5727 5726 5725 5724 5724 5722 5722 5721 5720
5640 5656 5667 5680 5691 5698 5703 5707 5709 5709 5711 5711 5713 5714 5716 5715 5715 5716 5717 5717 5719 5720 5721 5720 5720 5721 5720 5720 5720 5721 5719 5716 5714 5715 5715 5713 5711 5710 5709 5708 5708 5708 5707
5638 5654 5667 5676 5684 5689 5693 5697 5697 5699 5700 5701 5703 5701 5702 5703 5704 5705 5707 5709 5708 5707 5707 5707 5708 5706 5705 5707 5707 5706 5704 5703 5701 5701 5701 5700 5699 5697 5696 5695 5694 5694 5693
5640 5652 5662 5669 5675 5681 5684 5686 5687 5689 5688 5689 5689 5691 5691 5692 5694 5694 5694 5694 5693 5693 5693 5692 5691 5691 5691 5692 5691 5690 5688 5688 5687 5685 5685 5686 5685 5683 5682 5681 5680 5680 5680
5647 5654 5659 5664 5670 5673 5676 5678 5679 5683 5681 5683 5683 5683 5684 5683 5682 5682 5682 5680 5679 5679 5678 5677 5675 5676 5675 5676 5675 5672 5671 5670 5670 5670 5669 5670 5668 5667 5668 5667 5666 5665 5665
5647 5651 5656 5661 5663 5666 5668 5670 5672 5672 5674 5673 5673 5672 5671 5671 5669 5667 5666 5665 5663 5662 5661 5660 5658 5659 5658 5657 5655 5656 5655 5653 5652 5652 5652 5653 5652 5651 5651 5652 5651 5651 5650
5646 5650 5653 5656 5659 5661 5664 5665 5665 5666 5665 5664 5663 5661 5659 5657 5654 5652 5650 5649 5646 5645 5645 5643 5642 5641 5640 5639 5638 5638 5637 5637 5633 5631 5630 5632 5632 5633 5634 5634 5635 5635 5636
5650 5653 5654 5658 5659 5660 5661 5662 5661 5661 5659 5656 5652 5650 5647 5644 5640 5637 5634 5632 5630 5629 5627 5625 5623 5622 5621 5621 5619 5619 5619 5617 5615 5612 5611 5614 5615 5617 5618 5617 5617 5618 5621
Wind_Speed
26 26 30 34 32 30 28 28 28 23 20 19 17 18 19 19 18 17 17 16 17 17 18 20 21 22 23 24 25 25 26 17 14 13 19 21 22 25 22 27 29 27 34
26 27 29 34 35 32 31 31 30 30 24 22 22 20 21 21 21 20 19 18 18 18 20 21 23 22 23 25 26 26 25 15 13 14 16 21 24 22 23 27 26 31 33
28 29 28 31 38 37 34 34 32 31 31 26 24 24 23 23 23 22 21 20 20 20 21 23 24 23 23 26 28 28 22 16 14 13 14 21 21 22 25 26 28 31 33
35 33 34 30 33 38 36 34 34 33 33 30 27 26 26 24 24 24 24 23 22 23 24 24 25 25 23 26 28 29 26 20 17 14 17 21 21 21 24 22 26 30 32
40 35 36 35 33 35 39 35 33 33 35 34 29 27 27 26 26 27 26 25 25 25 26 25 26 27 24 26 26 29 27 22 21 21 21 22 23 23 21 23 27 28 30
44 42 41 39 35 30 33 39 39 37 37 38 34 29 27 29 29 29 29 28 28 28 28 27 27 29 26 27 27 29 26 27 25 23 24 23 25 24 24 25 28 28 30
50 46 43 42 40 36 32 33 41 40 38 37 37 31 30 31 31 31 32 31 31 31 30 29 29 30 28 28 29 29 29 31 29 26 26 25 25 25 24 24 28 31 31
55 52 47 45 44 42 39 32 31 38 41 40 38 37 34 33 33 34 35 34 35 33 33 31 32 32 32 32 32 31 32 32 33 30 29 28 25 26 26 26 28 31 33
59 56 51 50 48 49 46 45 36 34 40 45 43 42 37 36 37 38 39 39 37 36 35 34 33 36 36 34 36 38 36 34 34 32 30 29 28 27 28 27 29 31 33
64 60 57 51 43 50 39 42 40 38 35 41 46 47 45 41 41 41 42 41 40 37 36 36 37 37 40 38 40 42 41 37 36 37 35 32 30 29 30 30 32 32 35
70 64 62 58 50 43 43 47 40 43 42 41 42 49 47 47 46 46 45 44 41 38 37 39 41 40 42 44 42 40 42 43 40 40 37 36 34 32 32 32 34 34 37
75 73 69 69 64 59 57 49 42 37 47 43 41 47 55 56 51 51 50 49 44 39 40 41 45 42 45 48 43 44 43 42 42 42 41 40 38 36 34 36 38 39 39
80 78 72 71 66 62 58 55 51 41 40 55 39 42 46 59 57 53 54 48 46 43 42 47 48 45 49 48 44 46 45 44 42 43 46 44 42 41 40 41 40 40 40
83 80 77 73 67 64 65 57 54 47 44 42 57 54 46 56 56 60 59 53 50 49 51 50 52 47 55 51 42 39 42 42 41 42 45 45 44 43 45 43 44 43 43
82 80 77 72 68 58 60 56 53 49 46 47 49 58 52 52 59 70 64 53 57 57 53 54 55 51 56 50 47 45 43 42 40 40 43 46 44 44 44 44 43 42 42
81 77 74 71 68 64 61 55 50 54 50 49 49 54 54 55 63 61 63 58 62 57 53 56 56 55 54 55 51 46 43 42 42 42 44 46 46 47 47 46 44 41 41
79 75 74 74 68 65 59 54 54 52 52 50 49 50 58 61 58 61 63 66 64 57 49 52 51 52 50 50 49 53 47 45 44 47 47 44 45 49 50 50 46 45 42
76 72 72 72 66 60 58 56 55 52 47 53 53 53 58 63 62 66 64 67 66 59 54 50 54 55 50 50 53 45 44 47 50 51 49 50 49 50 51 53 51 48 46
74 69 64 63 61 55 54 52 53 49 45 51 50 49 63 62 70 72 65 57 55 52 50 50 47 49 38 46 40 41 40 40 46 47 46 48 50 51 50 52 55 55 48
65 65 62 56 52 49 49 47 49 47 49 55 54 54 56 61 59 54 52 55 59 52 52 55 50 51 47 46 50 45 46 48 40 41 48 51 53 53 55 56 57 58 59
47 52 49 46 44 42 45 43 42 44 50 48 60 55 55 56 53 53 57 59 60 57 55 54 54 53 56 56 54 52 50 50 48 47 48 50 52 52 55 55 57 58 59
25 31 31 34 40 42 42 39 48 50 51 50 52 53 53 57 55 54 59 57 54 53 53 51 51 52 56 58 57 59 61 57 53 54 54 56 55 53 50 49 52 56 56
28 29 35 37 36 40 41 39 44 48 51 53 53 53 53 55 55 53 57 55 55 54 56 57 55 55 57 59 60 64 62 56 60 62 65 65 59 60 56 54 53 52 51
22 24 19 19 26 32 32 36 34 32 37 41 43 45 46 49 53 54 57 57 56 57 58 54 56 57 63 62 61 65 66 65 68 73 73 71 64 61 62 58 55 54 52
9 15 8 8 10 6 8 14 20 24 30 30 34 38 42 46 48 51 52 56 57 54 56 57 56 61 59 58 63 66 73 74 73 74 70 65 61 62 64 62 58 55 45
24 21 19 15 13 12 14 19 22 27 35 41 47 49 51 48 49 54 54 52 56 59 63 64 66 68 68 73 70 68 72 72 64 56 60 59 59 61 59 54 48 43 38
Wind_Direction
251 253 254 252 252 248 247 254 251 245 252 259 261 265 269 274 274 276 279 282 284 287 294 301 306 310 314 316 320 327 335 337 319 330 322 321 327 328 329 329 334 339 341
248 254 253 249 247 248 246 247 254 251 247 255 261 260 263 268 273 276 278 281 281 284 291 295 302 308 311 314 317 323 331 325 315 317 314 313 320 323 320 323 334 338 345
247 248 255 257 248 244 247 246 249 253 251 248 254 260 261 264 269 273 275 277 279 282 287 290 299 304 309 312 315 321 324 314 305 299 296 315 318 321 324 327 336 341 344
248 248 251 255 255 246 242 241 245 250 252 247 246 252 257 262 265 267 271 274 277 279 281 286 294 299 305 310 313 319 320 315 307 296 304 310 316 321 326 332 337 339 339
247 245 247 250 255 252 245 243 244 247 254 250 244 246 254 259 264 265 269 272 273 275 279 284 290 294 302 305 306 312 314 303 300 302 305 307 312 321 326 333 332 331 335
245 243 245 249 248 251 252 247 245 247 249 253 249 246 249 257 259 263 265 269 270 272 276 280 285 287 295 301 302 307 310 296 296 293 301 298 308 319 321 325 328 327 333
243 243 245 247 248 251 246 251 246 244 242 245 249 245 245 250 256 259 262 264 268 270 273 277 280 284 291 294 296 303 308 297 291 287 297 293 301 310 313 319 321 327 334
241 241 242 243 252 249 243 249 249 247 247 248 247 245 245 249 253 257 260 262 263 267 270 273 275 280 287 293 292 298 298 297 284 284 290 287 289 297 303 309 316 324 327
241 240 243 240 254 253 249 245 242 246 247 246 247 248 247 250 252 252 255 258 261 263 267 271 274 278 283 289 292 291 293 297 282 280 285 282 283 291 295 303 308 314 319
240 238 238 243 245 244 243 239 247 247 257 254 246 252 250 250 253 254 255 257 259 262 266 270 272 274 281 289 293 292 293 291 281 274 276 277 282 284 292 297 303 306 311
239 236 236 236 237 238 239 239 243 251 260 261 259 249 251 251 252 254 257 257 259 262 266 269 273 274 282 288 289 294 288 285 283 272 273 274 276 280 285 295 299 304 308
235 237 235 237 238 242 247 239 243 248 263 262 261 263 270 250 252 256 256 258 259 260 261 266 271 271 279 282 284 288 289 284 284 273 271 273 274 277 281 287 295 298 303
234 235 234 235 239 240 238 242 242 259 260 258 265 277 287 252 246 247 255 259 259 257 261 265 270 269 275 281 282 285 286 284 280 277 276 271 274 275 278 284 292 293 298
232 232 235 234 236 237 232 243 249 257 251 254 254 261 279 271 243 251 250 251 257 256 261 265 267 266 273 280 275 287 287 282 276 280 276 269 272 276 277 283 287 290 294
231 233 235 235 236 231 240 246 249 258 254 254 259 256 266 272 268 256 251 252 254 257 260 263 266 265 273 270 269 275 284 278 274 279 281 273 273 278 280 283 284 288 294
230 232 235 238 237 239 242 241 251 254 258 259 259 260 263 264 275 265 253 250 254 258 258 261 265 268 271 267 269 272 278 277 272 273 275 276 276 278 280 280 283 288 292
228 227 231 235 236 240 241 245 249 253 256 263 262 258 261 265 264 266 259 253 255 255 253 259 265 264 271 274 276 276 279 274 273 275 271 273 276 279 279 280 282 286 289
224 225 227 231 234 235 237 241 247 253 258 261 264 260 259 262 264 263 257 259 262 259 250 254 265 265 277 278 279 288 287 280 281 281 276 278 282 284 282 279 280 283 288
221 223 228 231 235 239 241 239 248 252 256 261 258 263 265 264 262 262 259 255 259 257 255 262 268 272 274 279 280 285 277 281 282 280 278 280 282 284 284 278 276 277 279
220 222 227 231 236 238 238 245 247 252 258 259 260 263 261 260 254 254 255 253 257 261 258 262 264 266 272 277 280 284 284 281 281 282 282 281 287 283 281 279 277 276 276
217 224 230 232 229 234 240 243 248 250 258 256 251 253 252 251 248 250 255 262 263 263 266 254 262 258 264 273 273 276 277 277 279 286 282 287 289 286 281 280 280 283 282
183 203 214 220 225 233 237 234 242 237 237 239 235 248 252 252 256 264 260 262 264 262 262 269 265 271 266 266 268 275 281 273 279 282 284 289 283 284 280 279 280 280 279
186 196 212 209 228 227 237 243 246 246 250 255 250 253 257 258 262 265 264 264 259 259 266 268 271 269 269 266 266 272 274 277 273 280 283 283 286 282 278 277 276 273 270
183 201 214 226 236 238 240 244 239 248 254 255 257 258 262 266 264 265 263 263 262 264 264 266 267 265 268 267 262 270 274 273 271 278 278 278 280 278 273 272 269 267 269
60 56 57 27 2 334 305 273 258 262 276 274 268 265 266 268 272 267 263 262 262 264 260 263 263 266 262 262 264 265 269 272 273 276 275 273 273 271 270 270 268 267 270
69 64 60 48 33 6 339 323 337 328 319 306 294 288 281 270 269 268 268 267 265 267 260 261 267 260 262 261 265 256 266 269 268 258 263 267 267 267 268 264 264 267 271